Location: Mountain Grove
(34.0887°N, 86.6172°W)
Time: 15:20:04
(UTC+00:00)

Spot 2 Rocket - Pass Details

Date: 14 July 2020
Orbit: 757 x 772 km, 98.6° (Epoch: 12 August)

Event Time Altitude Azimuth Distance (km) Brightness Sun altitude
Exits shadow 02:19:25 22° 116° (ESE) 1,649 4.6 -14.7°
Maximum altitude 02:21:50 33° 70° (ENE) 1,287 4.4 -15.1°
Drops below altitude 10° 02:26:21 10° 8° (N) 2,320 6.4 -15.8°
Sets 02:28:52 0° 359° (N) 3,252 7.4 -16.2°
